Rock Hill, SC

12:50 PM EDT on June 28, 2017 (GMT -0400)
Rock Hill-York County-Bryant

Weather History for KUZA - January, 2014

Change the Weather History Date:

Friday, January 17, 2014

  Actual Average Record
Temperature  
Mean Temperature 40 °F -  
Max Temperature 53 °F 50 °F 77 °F (1949)
Min Temperature 28 °F 29 °F 5 °F (1977)
Degree Days  
Heating Degree Days 24    
Moisture  
Dew Point 21 °F    
Average Humidity 47    
Maximum Humidity 64    
Minimum Humidity 30    
Precipitation  
Precipitation 0.00 in - - ()
Sea Level Pressure  
Sea Level Pressure 29.96 in    
Wind  
Wind Speed 9 mph (SW)    
Max Wind Speed 15 mph    
Max Gust Speed 26 mph    
Visibility 10 miles    
Events      
Averages and records for this station are not official NWS values.
T = Trace of Precipitation, MM = Missing Value Source: NWS Daily Summary

Daily Weather History Graph

Daily Weather History Graph

Search for Another Location

Airport or City:

Trip Planner

Search our weather history database for the weather conditions in past years. The results will help you decide how hot, cold, wet, or windy it might be!

Date:

Astronomy

Jan. 17, 2014 Rise Set
Actual Time 7:31 AM EST 5:37 PM EST
Civil Twilight 7:03 AM EST 6:05 PM EST
Nautical Twilight 6:32 AM EST 6:36 PM EST
Astronomical Twilight 6:02 AM EST 7:06 PM EST
Moon 7:17 PM EST (1/17) 8:03 AM EST (1/17)
Length of Visible Light 11h 01m
Length of Day
10h 06m
Full, 98% of the Moon is Illuminated
Jan 17
Full
Jan 24
Last Quarter
Jan 30
New
Feb 6
First Quarter
Feb 14
Full

Hourly Weather History & Observations

Time (EST) Temp. Windchill Dew Point Humidity Pressure Visibility Wind Dir Wind Speed Gust Speed Precip Events Conditions
12:54 AM 32.0 °F 25.6 °F 17.1 °F 54% 30.03 in 10.0 mi SSW 6.9 mph - N/A   Clear
1:54 AM 30.0 °F 24.1 °F 17.1 °F 59% 30.02 in 10.0 mi SSW 5.8 mph - N/A   Clear
2:54 AM 28.9 °F 21.1 °F 18.0 °F 64% 30.02 in 10.0 mi SSW 8.1 mph - N/A   Clear
3:54 AM 30.0 °F 22.4 °F 17.1 °F 59% 30.02 in 10.0 mi SW 8.1 mph - N/A   Clear
4:54 AM 28.9 °F 21.9 °F 18.0 °F 64% 30.00 in 10.0 mi SSW 6.9 mph - N/A   Clear
5:54 AM 30.0 °F 21.7 °F 18.0 °F 61% 29.99 in 10.0 mi SSW 9.2 mph - N/A   Clear
6:54 AM 30.0 °F 21.1 °F 18.0 °F 61% 30.01 in 10.0 mi SSW 10.4 mph - N/A   Clear
7:54 AM 30.0 °F 20.5 °F 18.0 °F 61% 30.01 in 10.0 mi SSW 11.5 mph - N/A   Clear
8:54 AM 34.0 °F 25.0 °F 19.9 °F 56% 30.02 in 10.0 mi SSW 12.7 mph - N/A   Clear
9:54 AM 39.0 °F 32.3 °F 19.9 °F 46% 30.03 in 10.0 mi SW 10.4 mph - N/A   Clear
10:54 AM 44.1 °F 38.6 °F 21.9 °F 42% 30.02 in 10.0 mi WSW 10.4 mph - N/A   Clear
11:54 AM 46.9 °F - 24.1 °F 41% 29.98 in 10.0 mi SSW 10.4 mph - N/A   Clear
12:54 PM 50.0 °F - 27.0 °F 41% 29.93 in 10.0 mi SSW 15.0 mph - N/A   Clear
1:54 PM 51.1 °F - 27.0 °F 39% 29.90 in 10.0 mi South 13.8 mph 18.4 mph N/A   Clear
2:54 PM 52.0 °F - 26.1 °F 37% 29.89 in 10.0 mi SW 12.7 mph - N/A   Clear
3:54 PM 53.1 °F - 21.9 °F 30% 29.88 in 10.0 mi SW 12.7 mph 26.5 mph N/A   Clear
4:54 PM 51.1 °F - 24.1 °F 35% 29.88 in 10.0 mi SW 11.5 mph - N/A   Clear
5:54 PM 45.0 °F 41.8 °F 25.0 °F 46% 29.89 in 10.0 mi SW 5.8 mph - N/A   Scattered Clouds
6:54 PM 44.1 °F - 27.0 °F 51% 29.90 in 10.0 mi Calm Calm - N/A   Partly Cloudy
7:54 PM 45.0 °F 43.5 °F 27.0 °F 49% 29.90 in 10.0 mi South 3.5 mph - N/A   Overcast
8:54 PM 45.0 °F 39.3 °F 18.0 °F 34% 29.91 in 10.0 mi West 11.5 mph 18.4 mph N/A   Clear
9:54 PM 43.0 °F 36.0 °F 14.0 °F 31% 29.93 in 10.0 mi West 13.8 mph 17.3 mph N/A   Clear
10:54 PM 41.0 °F 35.8 °F 14.0 °F 33% 29.94 in 10.0 mi West 8.1 mph - N/A   Clear
11:54 PM 39.0 °F 33.4 °F 14.0 °F 36% 29.94 in 10.0 mi West 8.1 mph - N/A   Clear